Regional Weather Roundup
Issued by NWS

Home | Current Version | Previous Version | Graphics & Text | Print | Product List | Glossary On
Versions: 1 2 3 4 5 6 7 8 9 10 11 12 13 14 15 16 17 18 19 20 21 22 23 24 25 26 27 28 29 30 31 32 33 34 35 36 37 38 39 40 41 42 43 44 45 46 47 48 49 50
000
ASUS45 KPSR 052100
RWRAZ

ARIZONA HOURLY REGIONAL WEATHER ROUNDUP
NATIONAL WEATHER SERVICE PHOENIX AZ
200 PM MST SUN JUL 05 2015

NOTE: FAIR INDICATES FEW OR NO CLOUDS BELOW 12,000 FEET WITH NO
SIGNIFICANT WEATHER AND/OR OBSTRUCTIONS TO VISIBILITY.

AZZ001>003-036-052200-
NORTHWEST ARIZONA

CITY           SKY/WX    TMP DP  RH WIND       PRES   REMARKS
KINGMAN        MOSUNNY   97  47  18 SW16G25   29.99F
$$

AZZ004>008-015-016-018-052200-
NORTH CENTRAL ARIZONA

CITY           SKY/WX    TMP DP  RH WIND       PRES   REMARKS
GRAND CANYON   MOSUNNY   80  45  28 W13       30.21F
WILLIAMS       LGT RAIN  68  55  64 SE7       30.33F
PRESCOTT       PTSUNNY   73  59  61 S13G20    30.16S THUNDER
FLAGSTAFF      NOT AVBL
PAYSON         MOSUNNY   84  52  32 W12G21    30.16F
PAGE           SUNNY     97  42  15 W8        29.96F
$$

AZZ009>014-017-052200-
NORTHEAST ARIZONA

CITY           SKY/WX    TMP DP  RH WIND       PRES   REMARKS
WINSLOW        NOT AVBL
SAINT JOHNS    PTSUNNY   83  51  33 W18G25    30.14F
WINDOW ROCK    PTSUNNY   82  49  31 NW10      30.20
SHOW LOW       CLOUDY    66  59  77 S8        30.24F
$$

AZZ023-052200-
GREATER PHOENIX AREA

CITY           SKY/WX    TMP DP  RH WIND       PRES   REMARKS
PHOENIX        PTSUNNY  101  54  20 VRB6      29.84F
GLENDALE       PTSUNNY  100  55  22 CALM      29.87F
LUKE AFB       MOSUNNY  102  57  22 S10G18    29.84F HX 101
DEER VALLEY    PTSUNNY   97  53  22 SW9       29.87F
SCOTTSDALE     MOSUNNY  100  54  21 W9        29.89F
MESA-FALCON    PTSUNNY   97  55  24 W8        29.87F
MESA-GATEWAY   PTSUNNY   99  61  28 W7        29.89F
CHANDLER       PTSUNNY   99  55  23 SW13      29.87F
$$

AZZ027-028-052200-
SOUTHWEST MARICOPA COUNTY AND PINAL COUNTY

CITY           SKY/WX    TMP DP  RH WIND       PRES   REMARKS
CASA GRANDE    CLOUDY    82  70  65 S18G24    29.93R
GILA BEND      CLOUDY    97  62  31 SW8       29.86R
$$

AZZ503-504-507>509-052200-
SOUTHEAST ARIZONA

CITY           SKY/WX    TMP DP  RH WIND       PRES   REMARKS
TUCSON         CLOUDY    87  63  44 W14       30.02F
DAVIS-MONTHAN  CLOUDY    88  63  42 NW20G33   30.00F THUNDER
NOGALES        PTSUNNY   85  57  38 VRB5      30.09F
SIERRA VISTA   PTSUNNY   78  60  54 S6        30.16F
SAFFORD        PTSUNNY   90  61  37 W16G22    29.99F
$$

AZZ020-021-025-026-031-052200-
SOUTHWEST ARIZONA

CITY           SKY/WX    TMP DP  RH WIND       PRES   REMARKS
YUMA           SUNNY    102  66  30 S13G24    29.80F HX 106
$$

CAZ031-033-041-043-047-048-061-052200-
SOUTHERN CALIFORNIA

CITY           SKY/WX    TMP DP  RH WIND       PRES   REMARKS
DOWNTOWN L.A.  MOSUNNY   75  60  59 VRB6      29.96F
L.A. AIRPORT   PTSUNNY   69  61  75 SW12      29.98F
SAN DIEGO      CLOUDY    70  60  70 NW10      30.00F
BURBANK        SUNNY     78  59  51 S5        29.96F
ONTARIO        MOSUNNY   81  59  47 W9        29.96F
RIVERSIDE      SUNNY     81  59  47 W8        29.95F
PALM SPRINGS   SUNNY    103  57  21 N7        29.82F HX 102
EL CENTRO NAS  SUNNY    103  59  23 SE9       29.78F HX 103
IMPERIAL       SUNNY    104  58  21 SE16      29.76F HX 104
BLYTHE         SUNNY    104  62  25 S24       29.78F HX 106
$$

NVZ020-UTZ003-052200-
SOUTHERN NEVADA-UTAH

CITY           SKY/WX    TMP DP  RH WIND       PRES   REMARKS
LAS VEGAS      NOT AVBL
SALT LAKE CITY MOSUNNY   84  59  42 W9        29.99F
$$

NMZ009-TXZ055-052200-
NEW MEXICO-WEST TEXAS

CITY           SKY/WX    TMP DP  RH WIND       PRES   REMARKS
ALBUQUERQUE    PTSUNNY   88  53  30 NW22G28   30.07F
EL PASO        MOSUNNY   91  58  32 W16G22    30.00F
$$


........................KEY........................
SKY/WX - SKY CONDITION/WEATHER
TMP    - TEMPERATURE IN FAHRENHEIT
DP     - DEW POINT IN FAHRENHEIT
RH     - RELATIVE HUMIDITY IN PERCENT
WIND   - DIRECTION AND SPEED IN MILES PER HOUR (MPH)
VRB    - VARIABLE WIND DIRECTION
PRES   - MEAN SEA LEVEL PRESSURE IN INCHES OF MERCURY
         F - FALLING PRESSURE   R - RISING PRESSURE
         S - STEADY PRESSURE
VSB    - VISIBILITY IN MILES
HX     - HEAT INDEX IN FAHRENHEIT
WCI    - WIND CHILL INDEX IN FAHRENHEIT
TC     - TEMPERATURE IN CELSIUS WHICH IS ALSO KNOWN AS
         TEMPERATURE IN CENTIGRADE
AFB    - AIR FORCE BASE
         LUKE AFB IS LUKE AIR FORCE BASE
         DAVIS-MONTHAN IS DAVIS-MONTHAN AIR FORCE BASE
NAS    - NAVAL AIR STATION
         EL CENTRO NAS IS EL CENTRO NAVAL AIR STATION
N/A    - NOT AVAILABLE




USA.gov is the U.S. government's official web portal to all federal, state and local government web resources and services.